User: anonymous   Login
Location: Bamobli
(6.6379°N, 10.9396°W)
Time: 02:56:42
(UTC+00:00)
Language:

Atlas Centaur 2 - Orbit

View from above orbital plane
View from above orbital plane
View from above satellite
View from above satellite

Ground track
Ground track

The orbit data is extracted from the following two-line orbital elements,

1   694U 63047A   20221.64654825 +.00000356 +00000-0 +30766-4 0  9996
2   694 030.3610 323.4374 0585888 279.9400 073.5591 14.02629002844432
Epoch (UTC): 08 August 2020 15:31:01
Eccentricity: 0.0585888
inclination: 30.3610°
perigee height: 459 km
apogee height: 1310 km
right ascension of ascending node: 323.4374°
argument of perigee: 279.9400°
revolutions per day: 14.02629002
mean anomaly at epoch: 73.5591°
orbit number at epoch: 84443

The dashed part of the orbit path shows where the satellite is in the earth's shadow,  

DLR